COSMOS 1275 DEB, 42109

Orbit data source: Space-Track

COSMOS 1275 DEB, 42109 is space debris in LEO originally from a launch on Thu, 04 Jun 1981 UTC launched from the Plesetsk Missile And Space Complex (PKMTR). Debris objects in space refer to the collection of defunct objects orbiting the Earth. Examples of debris include non-operational satellites, rocket bodies, and fragments generated from explosions, collisions, or faulty payload assembly.

Loading next visibility...
Identifier
42109, 1981-053PV
Orbit
LEO
Country
Flag of CISCIS
Related business
Manufacturer
Unknown
Mission
Spacecraft
Bus & Motor
Unknown
Mass
Unknown
Launch date (UTC)
1981-06-04 (44 years ago)
Launch vehicle
Unknown
Launch site
Plesetsk Missile And Space Complex (PKMTR)
Object type
Payload
Rocket body
Debris
Shape & HBR
Unknown shape, 0.1 m
Radar Cross Section
Small (<0.1 m²)

Expand to show TLE details & history
Last TLE update: 3 days ago

TLE from 3 days ago
0 COSMOS 1275 DEB
1 42109U 81053PV  25284.48532958  .00000120  00000-0  10328-3 0  9998
2 42109  82.9528   3.7669 0030272  69.7971 306.8067 13.78271816597843
Epoch: 2025-10-11T11:38Z
TLE epoch observation values (Epoch: 2025-10-11T11:38:52.475Z)
Latitude
16.18049°
Longitude
170.77701°
Altitude
958.987 km
Speed
7.38 km/s
True Right ascension
00h 23m 14s
True Declination
16° 05' 28"
Sunlit
Object was in full shadow at epoch
Visualization orbit readout
Latitude
Unknown
Longitude
Unknown
Altitude
Unknown
Speed
Unknown
Apparent Right ascension
Unknown
Apparent Declination
Unknown
Sunlit
N/A
Visualization observer readout
Local Sidereal Time
02:42:09
Azimuth
Unknown
Elevation
Unknown
Doppler factor
Unknown
Orbital elements
Apogee altitude
989.402 km
Perigee altitude
944.931 km
Semi-major axis
7,345.304 km
Eccentricity
0.00303
Inclination
82.9528°
RAAN
3.7669°
Arg. of periapsis
69.7971°
True anomaly
306.52833°
Mean anomaly
306.8067°
Eccentric anomaly
306.66758°
Mean motion
3.44769 °/min
Orbital period
104.42 mins
BSTAR
0.00010328
Loading maneuver chart data...
Computing Atmospheric mass density...

Documentation

Showing up to 5 results
|